Location: Las Callecitas
(9.8750°N, 67.4611°W)
Time: 22:04:42
(UTC+00:00)

SL-16 R/B - Pass Details

Date: 14 April 2024
Orbit: 839 x 849 km, 71.0° (Epoch: 18 May)

Event Time Altitude Azimuth Distance (km) Brightness Sun altitude
Exits shadow 09:03:36 12° 315° (NW) 2,319 4.2 -19.2°
Drops below altitude 10° 09:04:21 10° 322° (NW) 2,447 4.4 -19.0°
Sets 09:08:00 0° 346° (NNW) 3,382 5.3 -18.2°
